DLH1034 EDDF-LFPG

Flight info

Callsign DLH1034
Flight time 0h 53m
Altitude 24000
Route SOBRA2L SOBRA Y180 DIK UN857 TOLVU/N0403F230 DCT RAPOR DCT VEDUS
Aircraft A320/M-SDE3FGHIRWY/LB1

Departure

Time 2026-05-05 13:03
Airport Frankfurt Main Airport (EDDF)

Arrival

Time 2026-05-05 13:56
Airport Charles de Gaulle International Airport (LFPG)
Time Latitude Longitude Altitude Speed Heading
2026-05-05 12:25 50.04480 8.56537 359 ft 0 kts 164°
2026-05-05 12:53 50.04485 8.56536 356 ft 3 kts 165°
2026-05-05 12:53 50.04511 8.56525 363 ft 4 kts 158°
2026-05-05 12:54 50.04541 8.56473 362 ft 4 kts 131°
2026-05-05 12:54 50.04561 8.56452 362 ft 4 kts 183°
2026-05-05 12:54 50.04570 8.56454 362 ft 0 kts 204°
2026-05-05 12:56 50.04568 8.56452 362 ft 2 kts 204°
2026-05-05 12:57 50.04547 8.56438 359 ft 9 kts 204°
2026-05-05 12:57 50.04500 8.56319 358 ft 15 kts 250°
2026-05-05 12:57 50.04460 8.56149 358 ft 18 kts 250°
2026-05-05 12:57 50.04411 8.55953 363 ft 20 kts 240°
2026-05-05 12:58 50.04307 8.55952 360 ft 18 kts 158°
2026-05-05 12:58 50.04225 8.55882 357 ft 16 kts 248°
2026-05-05 12:58 50.04183 8.55701 358 ft 20 kts 250°
2026-05-05 12:58 50.04132 8.55486 356 ft 23 kts 250°
2026-05-05 12:59 50.04074 8.55249 357 ft 24 kts 250°
2026-05-05 12:59 50.04009 8.54978 362 ft 31 kts 250°
2026-05-05 12:59 50.03926 8.54629 351 ft 38 kts 249°
2026-05-05 13:00 50.03757 8.54047 348 ft 24 kts 249°
2026-05-05 13:00 50.03696 8.53795 344 ft 27 kts 250°
2026-05-05 13:01 50.03481 8.52908 336 ft 22 kts 249°
2026-05-05 13:01 50.03417 8.52672 332 ft 25 kts 248°
2026-05-05 13:01 50.03367 8.52596 335 ft 2 kts 183°
2026-05-05 13:01 50.03364 8.52596 335 ft 0 kts 181°
2026-05-05 13:02 50.03362 8.52596 335 ft 4 kts 181°
2026-05-05 13:02 50.03129 8.52595 336 ft 73 kts 180°
2026-05-05 13:02 50.02366 8.52596 335 ft 149 kts 179°
2026-05-05 13:02 50.01139 8.52605 726 ft 192 kts 182°
2026-05-05 13:03 49.99747 8.52616 1447 ft 208 kts 180°
2026-05-05 13:03 49.98236 8.52606 2070 ft 226 kts 181°
2026-05-05 13:03 49.96622 8.52641 2961 ft 231 kts 178°
2026-05-05 13:03 49.95011 8.52709 3953 ft 237 kts 186°
2026-05-05 13:04 49.93458 8.51820 4870 ft 244 kts 215°
2026-05-05 13:04 49.92342 8.49808 5747 ft 259 kts 244°
2026-05-05 13:04 49.91934 8.47009 6612 ft 272 kts 261°
2026-05-05 13:04 49.91701 8.44114 7613 ft 277 kts 261°
2026-05-05 13:05 49.91457 8.41084 8664 ft 282 kts 261°
2026-05-05 13:05 49.91208 8.38089 9694 ft 286 kts 261°
2026-05-05 13:05 49.90938 8.34950 10414 ft 304 kts 261°
2026-05-05 13:05 49.90640 8.31546 10814 ft 329 kts 261°
2026-05-05 13:06 49.90321 8.27936 11425 ft 343 kts 261°
2026-05-05 13:06 49.89995 8.24235 12273 ft 350 kts 261°
2026-05-05 13:06 49.89666 8.20463 13140 ft 355 kts 261°
2026-05-05 13:06 49.89330 8.16649 13967 ft 360 kts 261°
2026-05-05 13:07 49.88989 8.12791 14759 ft 364 kts 260°
2026-05-05 13:07 49.88640 8.08874 15552 ft 368 kts 260°
2026-05-05 13:07 49.88287 8.04929 16331 ft 372 kts 260°
2026-05-05 13:07 49.87924 8.00937 17111 ft 376 kts 260°
2026-05-05 13:08 49.87561 7.96949 17875 ft 380 kts 259°
2026-05-05 13:08 49.87190 7.92879 18557 ft 384 kts 259°
2026-05-05 13:08 49.86815 7.88759 19196 ft 387 kts 259°
2026-05-05 13:08 49.86436 7.84594 19842 ft 391 kts 259°
2026-05-05 13:09 49.86051 7.80404 20477 ft 395 kts 259°
2026-05-05 13:09 49.85661 7.76169 21104 ft 398 kts 259°
2026-05-05 13:09 49.85265 7.71887 21749 ft 402 kts 259°
2026-05-05 13:09 49.84862 7.67573 22313 ft 407 kts 259°
2026-05-05 13:10 49.84460 7.63275 22876 ft 411 kts 259°
2026-05-05 13:10 49.84042 7.58868 23452 ft 415 kts 259°
2026-05-05 13:10 49.83620 7.54419 23753 ft 417 kts 259°
2026-05-05 13:10 49.83199 7.49963 23836 ft 422 kts 259°
2026-05-05 13:11 49.82770 7.45435 23851 ft 427 kts 259°
2026-05-05 13:11 49.82340 7.40880 23846 ft 428 kts 259°
2026-05-05 13:11 49.81904 7.36302 23849 ft 428 kts 259°
2026-05-05 13:11 49.81466 7.31754 23849 ft 428 kts 258°
2026-05-05 13:12 49.81022 7.27187 23849 ft 428 kts 258°
2026-05-05 13:12 49.80583 7.22695 23850 ft 429 kts 258°
2026-05-05 13:12 49.80135 7.18118 23846 ft 429 kts 258°
2026-05-05 13:12 49.79689 7.13542 23844 ft 430 kts 258°
2026-05-05 13:13 49.79242 7.08969 23845 ft 430 kts 258°
2026-05-05 13:13 49.78791 7.04389 23839 ft 430 kts 258°
2026-05-05 13:13 49.78336 6.99820 23839 ft 430 kts 258°
2026-05-05 13:13 49.77878 6.95239 23847 ft 429 kts 258°
2026-05-05 13:14 49.77417 6.90675 23842 ft 429 kts 258°
2026-05-05 13:14 49.77112 6.87651 23833 ft 429 kts 258°
2026-05-05 13:14 49.76502 6.81611 23846 ft 430 kts 258°
2026-05-05 13:14 49.76040 6.77031 23861 ft 431 kts 258°
2026-05-05 13:15 49.75572 6.72441 23861 ft 431 kts 258°
2026-05-05 13:15 49.75257 6.69355 23861 ft 430 kts 258°
2026-05-05 13:15 49.74799 6.64850 23862 ft 429 kts 258°
2026-05-05 13:15 49.74326 6.60231 23859 ft 429 kts 258°
2026-05-05 13:16 49.73858 6.55668 23860 ft 428 kts 258°
2026-05-05 13:16 49.73396 6.51180 23858 ft 428 kts 258°
2026-05-05 13:16 49.72925 6.46642 23857 ft 428 kts 258°
2026-05-05 13:16 49.72447 6.42094 23857 ft 428 kts 258°
2026-05-05 13:17 49.71966 6.37546 23861 ft 428 kts 258°
2026-05-05 13:17 49.71486 6.33011 23863 ft 428 kts 258°
2026-05-05 13:17 49.71006 6.28484 23881 ft 428 kts 258°
2026-05-05 13:17 49.70522 6.23926 23884 ft 427 kts 258°
2026-05-05 13:18 49.70047 6.19461 23882 ft 427 kts 258°
2026-05-05 13:18 49.69563 6.14942 23882 ft 426 kts 258°
2026-05-05 13:18 49.69077 6.10415 23882 ft 426 kts 258°
2026-05-05 13:18 49.68591 6.05902 23879 ft 426 kts 258°
2026-05-05 13:19 49.68103 6.01394 23882 ft 426 kts 258°
2026-05-05 13:19 49.67613 5.96879 23882 ft 426 kts 258°
2026-05-05 13:19 49.67124 5.92369 23879 ft 426 kts 258°
2026-05-05 13:19 49.66632 5.87862 23878 ft 426 kts 258°
2026-05-05 13:20 49.66140 5.83351 23884 ft 426 kts 257°
2026-05-05 13:20 49.65647 5.78849 23879 ft 425 kts 257°
2026-05-05 13:20 49.65151 5.74350 23873 ft 424 kts 257°
2026-05-05 13:20 49.64660 5.69912 23868 ft 424 kts 257°
2026-05-05 13:21 49.64164 5.65439 23867 ft 424 kts 257°
2026-05-05 13:21 49.63664 5.60955 23866 ft 424 kts 257°
2026-05-05 13:21 49.63160 5.56470 23863 ft 424 kts 257°
2026-05-05 13:21 49.62654 5.51995 23860 ft 424 kts 257°
2026-05-05 13:22 49.62147 5.47518 23861 ft 424 kts 257°
2026-05-05 13:22 49.61636 5.43025 23859 ft 424 kts 256°
2026-05-05 13:22 49.61123 5.38551 23867 ft 424 kts 256°
2026-05-05 13:22 49.60608 5.34075 23847 ft 425 kts 256°
2026-05-05 13:23 49.60091 5.29593 23837 ft 425 kts 256°
2026-05-05 13:23 49.59573 5.25082 23834 ft 426 kts 256°
2026-05-05 13:23 49.59189 5.20549 23825 ft 429 kts 263°
2026-05-05 13:23 49.59186 5.15982 23827 ft 432 kts 268°
2026-05-05 13:24 49.59234 5.11353 23827 ft 432 kts 267°
2026-05-05 13:24 49.59278 5.06693 23832 ft 433 kts 267°
2026-05-05 13:24 49.59318 5.02053 23833 ft 434 kts 267°
2026-05-05 13:24 49.59352 4.97398 23836 ft 433 kts 267°
2026-05-05 13:25 49.59384 4.92748 23860 ft 434 kts 268°
2026-05-05 13:25 49.59414 4.88141 23868 ft 435 kts 268°
2026-05-05 13:25 49.59441 4.83485 23854 ft 434 kts 268°
2026-05-05 13:25 49.59471 4.78857 23844 ft 431 kts 268°
2026-05-05 13:26 49.59502 4.74237 23841 ft 431 kts 268°
2026-05-05 13:26 49.59530 4.69620 23836 ft 431 kts 268°
2026-05-05 13:26 49.59555 4.65001 23834 ft 431 kts 268°
2026-05-05 13:26 49.59575 4.60389 23832 ft 431 kts 268°
2026-05-05 13:27 49.59593 4.55773 23827 ft 431 kts 268°
2026-05-05 13:27 49.59606 4.51129 23827 ft 431 kts 268°
2026-05-05 13:27 49.59616 4.46514 23837 ft 431 kts 269°
2026-05-05 13:27 49.59627 4.41902 23839 ft 427 kts 269°
2026-05-05 13:28 49.59641 4.37350 23848 ft 422 kts 268°
2026-05-05 13:28 49.59654 4.32840 23845 ft 418 kts 268°
2026-05-05 13:28 49.59665 4.28436 23363 ft 403 kts 268°
2026-05-05 13:28 49.59677 4.24207 22220 ft 397 kts 268°
2026-05-05 13:29 49.59681 4.19948 21372 ft 396 kts 268°
2026-05-05 13:29 49.59682 4.15724 20655 ft 392 kts 268°
2026-05-05 13:29 49.59664 4.11544 19948 ft 388 kts 265°
2026-05-05 13:29 49.59251 4.07486 19278 ft 382 kts 252°
2026-05-05 13:30 49.58310 4.03700 18657 ft 376 kts 239°
2026-05-05 13:30 49.56966 4.00283 18120 ft 372 kts 234°
2026-05-05 13:30 49.55567 3.96958 17531 ft 370 kts 234°
2026-05-05 13:30 49.54169 3.93636 16904 ft 367 kts 234°
2026-05-05 13:31 49.52784 3.90355 16267 ft 364 kts 234°
2026-05-05 13:31 49.51408 3.87100 15647 ft 361 kts 234°
2026-05-05 13:31 49.50039 3.83866 15042 ft 358 kts 234°
2026-05-05 13:31 49.48693 3.80682 14444 ft 355 kts 234°
2026-05-05 13:32 49.47521 3.77343 13829 ft 355 kts 246°
2026-05-05 13:32 49.46805 3.73737 13418 ft 348 kts 254°
2026-05-05 13:32 49.46229 3.70214 13273 ft 331 kts 253°
2026-05-05 13:32 49.45663 3.66865 13125 ft 317 kts 253°
2026-05-05 13:33 49.45108 3.63631 12870 ft 311 kts 253°
2026-05-05 13:33 49.44557 3.60433 12837 ft 310 kts 253°
2026-05-05 13:33 49.44005 3.57229 12851 ft 311 kts 253°
2026-05-05 13:33 49.43449 3.53995 12834 ft 316 kts 254°
2026-05-05 13:34 49.42897 3.50767 12843 ft 316 kts 254°
2026-05-05 13:34 49.42338 3.47491 12840 ft 317 kts 254°
2026-05-05 13:34 49.41662 3.44277 12840 ft 315 kts 244°
2026-05-05 13:34 49.40705 3.41249 12844 ft 315 kts 242°
2026-05-05 13:35 49.39742 3.38223 12847 ft 316 kts 242°
2026-05-05 13:35 49.38780 3.35190 12836 ft 315 kts 242°
2026-05-05 13:35 49.37820 3.32172 12811 ft 315 kts 242°
2026-05-05 13:35 49.36847 3.29115 12152 ft 321 kts 242°
2026-05-05 13:36 49.35852 3.25991 11387 ft 328 kts 243°
2026-05-05 13:36 49.34842 3.22822 10641 ft 333 kts 243°
2026-05-05 13:36 49.33821 3.19620 10032 ft 333 kts 243°
2026-05-05 13:36 49.32825 3.16501 9867 ft 319 kts 243°
2026-05-05 13:37 49.31876 3.13521 9824 ft 300 kts 243°
2026-05-05 13:37 49.31005 3.10775 9834 ft 281 kts 244°
2026-05-05 13:37 49.30172 3.08165 9833 ft 264 kts 243°
2026-05-05 13:37 49.29381 3.05694 9833 ft 247 kts 243°
2026-05-05 13:38 49.28611 3.03286 9839 ft 275 kts 243°
2026-05-05 13:38 49.27719 3.00515 9836 ft 298 kts 243°
2026-05-05 13:38 49.26795 2.97641 9833 ft 303 kts 243°
2026-05-05 13:38 49.25854 2.94739 9834 ft 305 kts 243°
2026-05-05 13:39 49.24904 2.91838 9833 ft 304 kts 243°
2026-05-05 13:39 49.23958 2.88931 9830 ft 304 kts 243°
2026-05-05 13:39 49.23022 2.86045 9831 ft 303 kts 244°
2026-05-05 13:39 49.22082 2.83139 9832 ft 304 kts 244°
2026-05-05 13:40 49.21142 2.80233 9832 ft 305 kts 244°
2026-05-05 13:40 49.20200 2.77329 9837 ft 304 kts 244°
2026-05-05 13:40 49.19267 2.74463 9835 ft 304 kts 243°
2026-05-05 13:40 49.18323 2.71565 9836 ft 304 kts 243°
2026-05-05 13:41 49.17378 2.68669 9838 ft 304 kts 243°
2026-05-05 13:41 49.16434 2.65774 9837 ft 304 kts 243°
2026-05-05 13:41 49.15499 2.62880 9834 ft 304 kts 246°
2026-05-05 13:41 49.15022 2.59760 9835 ft 303 kts 268°
2026-05-05 13:42 49.15007 2.56536 9839 ft 302 kts 272°
2026-05-05 13:42 49.15042 2.53323 9837 ft 303 kts 272°
2026-05-05 13:42 49.15078 2.50110 9837 ft 304 kts 272°
2026-05-05 13:42 49.15115 2.46886 9836 ft 303 kts 272°
2026-05-05 13:43 49.15148 2.43662 9836 ft 304 kts 272°
2026-05-05 13:43 49.15181 2.40431 9837 ft 304 kts 272°
2026-05-05 13:43 49.15216 2.37230 9834 ft 298 kts 272°
2026-05-05 13:43 49.15247 2.34129 9834 ft 284 kts 272°
2026-05-05 13:44 49.15277 2.31168 9679 ft 278 kts 272°
2026-05-05 13:44 49.15308 2.28213 9282 ft 277 kts 272°
2026-05-05 13:44 49.15338 2.25275 8891 ft 276 kts 272°
2026-05-05 13:44 49.15367 2.22350 8501 ft 276 kts 272°
2026-05-05 13:45 49.15393 2.19409 8112 ft 276 kts 272°
2026-05-05 13:45 49.15419 2.16481 7731 ft 277 kts 272°
2026-05-05 13:45 49.15440 2.13575 7358 ft 276 kts 272°
2026-05-05 13:45 49.15462 2.10645 6986 ft 273 kts 272°
2026-05-05 13:46 49.15477 2.07764 6614 ft 268 kts 271°
2026-05-05 13:46 49.15483 2.04978 6231 ft 256 kts 269°
2026-05-05 13:46 49.15013 2.02409 5853 ft 253 kts 238°
2026-05-05 13:46 49.13774 2.00554 5471 ft 251 kts 207°
2026-05-05 13:47 49.12113 1.99904 5105 ft 246 kts 178°
2026-05-05 13:47 49.10415 2.00013 5028 ft 246 kts 173°
2026-05-05 13:47 49.08693 2.00230 5034 ft 248 kts 172°
2026-05-05 13:47 49.06975 2.00462 5033 ft 248 kts 172°
2026-05-05 13:48 49.05272 2.00708 5037 ft 243 kts 171°
2026-05-05 13:48 49.03658 2.00959 5024 ft 223 kts 172°
2026-05-05 13:48 49.02129 2.01356 5040 ft 222 kts 156°
2026-05-05 13:48 49.00834 2.02523 5045 ft 214 kts 131°
2026-05-05 13:49 49.00088 2.04382 5032 ft 210 kts 104°
2026-05-05 13:49 48.99896 2.06565 5037 ft 205 kts 84°
2026-05-05 13:49 49.00016 2.08720 5042 ft 211 kts 83°
2026-05-05 13:49 49.00145 2.10942 5021 ft 207 kts 83°
2026-05-05 13:50 49.00268 2.13066 5025 ft 198 kts 83°
2026-05-05 13:50 49.00389 2.15140 5018 ft 194 kts 82°
2026-05-05 13:50 49.00506 2.17192 4944 ft 195 kts 83°
2026-05-05 13:50 49.00624 2.19264 4719 ft 193 kts 82°
2026-05-05 13:51 49.00739 2.21279 4475 ft 196 kts 82°
2026-05-05 13:51 49.00861 2.23398 4197 ft 203 kts 81°
2026-05-05 13:51 49.00985 2.25583 3911 ft 213 kts 82°
2026-05-05 13:51 49.01112 2.27872 3597 ft 217 kts 82°
2026-05-05 13:52 49.01239 2.30140 3320 ft 213 kts 82°
2026-05-05 13:52 49.01362 2.32330 3041 ft 202 kts 80°
2026-05-05 13:52 49.01476 2.34384 2779 ft 186 kts 82°
2026-05-05 13:52 49.01577 2.36234 2561 ft 164 kts 81°
2026-05-05 13:53 49.01668 2.37889 2336 ft 151 kts 81°
2026-05-05 13:53 49.01755 2.39441 2139 ft 145 kts 81°
2026-05-05 13:53 49.01838 2.40931 1960 ft 138 kts 79°
2026-05-05 13:53 49.01915 2.42325 1775 ft 132 kts 79°
2026-05-05 13:54 49.01992 2.43726 1593 ft 130 kts 78°
2026-05-05 13:54 49.02068 2.45095 1420 ft 129 kts 78°
2026-05-05 13:54 49.02143 2.46463 1247 ft 130 kts 80°
2026-05-05 13:54 49.02217 2.47813 1057 ft 129 kts 79°
2026-05-05 13:55 49.02292 2.49185 855 ft 129 kts 79°
2026-05-05 13:55 49.02363 2.50558 694 ft 131 kts 82°
2026-05-05 13:55 49.02423 2.51937 522 ft 130 kts 80°
2026-05-05 13:55 49.02511 2.53296 368 ft 123 kts 81°
2026-05-05 13:56 49.02580 2.54400 362 ft 67 kts 85°
2026-05-05 13:56 49.02610 2.55001 361 ft 45 kts 84°
2026-05-05 13:56 49.02562 2.55320 359 ft 26 kts 112°
2026-05-05 13:56 49.02500 2.55518 358 ft 11 kts 115°
2026-05-05 13:57 49.02498 2.55523 360 ft 0 kts 115°
2026-05-05 14:00 49.02382 2.55613 355 ft 22 kts 178°
2026-05-05 14:00 49.02266 2.55632 354 ft 29 kts 175°
2026-05-05 14:00 49.02008 2.55663 354 ft 27 kts 175°
2026-05-05 14:00 49.01889 2.55606 357 ft 16 kts 260°
2026-05-05 14:01 49.01877 2.55439 355 ft 15 kts 264°
2026-05-05 14:01 49.01870 2.55333 355 ft 15 kts 265°
2026-05-05 14:01 49.01863 2.55181 355 ft 14 kts 266°
2026-05-05 14:01 49.01857 2.55037 355 ft 13 kts 266°
2026-05-05 14:02 49.01851 2.54902 355 ft 13 kts 265°
2026-05-05 14:02 49.01838 2.54679 355 ft 23 kts 265°
2026-05-05 14:02 49.01828 2.54489 361 ft 30 kts 265°
2026-05-05 14:02 49.01810 2.54126 358 ft 18 kts 265°
2026-05-05 14:03 49.01782 2.54035 361 ft 9 kts 235°
2026-05-05 14:03 49.01738 2.53974 358 ft 8 kts 213°
2026-05-05 14:03 49.01705 2.53937 362 ft 3 kts 221°
2026-05-05 14:03 49.01691 2.53920 360 ft 2 kts 218°
2026-05-05 14:04 49.01678 2.53915 359 ft 2 kts 187°
2026-05-05 14:04 49.01668 2.53913 357 ft 1 kts 191°
2026-05-05 14:04 49.01661 2.53910 356 ft 1 kts 193°
2026-05-05 14:04 49.01660 2.53910 356 ft 0 kts 192°
2026-05-05 14:05 49.01653 2.53908 359 ft 1 kts 192°
2026-05-05 14:05 49.01650 2.53907 359 ft 0 kts 192°
2026-05-05 14:05 49.01649 2.53906 359 ft 0 kts 192°